Temp
-9 -9 -9 -9 -9 -9 -9 -9 -9 -9 -9 -9 -9 -9 -9 -9 -9 -8 -8 -9 -9 -8 -8 -8 -8 -9 -9 -8 -9 -9 -9 -9 -11 -12 -11 -8 -10 -10 -10 -10 -11 -12 -10 -10 -11
-10 -9 -10 -10 -10 -10 -10 -10 -10 -10 -10 -9 -9 -9 -9 -9 -9 -8 -9 -9 -9 -9 -9 -9 -9 -9 -9 -9 -9 -9 -9 -11 -11 -12 -9 -9 -11 -9 -11 -10 -10 -11 -11 -11 -11
-10 -10 -10 -10 -10 -10 -10 -10 -10 -10 -10 -10 -10 -9 -9 -9 -9 -9 -9 -9 -9 -9 -9 -9 -10 -9 -9 -9 -9 -9 -10 -9 -9 -9 -10 -10 -11 -10 -11 -10 -10 -12 -12 -11 -11
-10 -10 -11 -10 -10 -11 -11 -10 -10 -10 -10 -10 -10 -10 -10 -10 -10 -9 -9 -9 -9 -9 -9 -10 -10 -10 -10 -10 -9 -10 -10 -9 -10 -11 -11 -11 -10 -11 -11 -11 -11 -11 -11 -12 -11
-11 -11 -11 -11 -11 -11 -11 -11 -11 -11 -11 -10 -10 -10 -10 -10 -10 -9 -10 -10 -10 -10 -10 -10 -10 -10 -10 -10 -10 -10 -10 -10 -10 -11 -11 -11 -11 -11 -11 -11 -11 -12 -12 -12 -12
-12 -12 -12 -11 -11 -11 -11 -11 -11 -11 -11 -11 -11 -10 -10 -10 -9 -9 -10 -10 -10 -10 -10 -10 -10 -11 -10 -10 -11 -10 -11 -11 -11 -11 -11 -11 -11 -11 -11 -12 -12 -12 -12 -12 -12
-13 -13 -13 -12 -12 -12 -12 -12 -12 -11 -11 -11 -10 -10 -10 -10 -10 -10 -10 -11 -11 -11 -11 -10 -10 -11 -10 -10 -11 -11 -11 -11 -11 -12 -11 -12 -11 -11 -11 -12 -12 -12 -12 -12 -12
-12 -13 -12 -12 -12 -12 -12 -12 -12 -12 -11 -11 -11 -11 -10 -11 -10 -10 -11 -11 -11 -11 -11 -11 -11 -11 -11 -11 -11 -11 -12 -12 -12 -12 -12 -12 -12 -10 -12 -12 -12 -12 -12 -12 -12
-13 -13 -13 -13 -13 -12 -12 -12 -12 -12 -12 -12 -12 -11 -11 -11 -11 -11 -11 -11 -11 -11 -11 -11 -11 -11 -11 -11 -12 -12 -12 -12 -12 -12 -12 -12 -12 -11 -11 -11 -12 -12 -12 -12 -12
-14 -14 -14 -13 -13 -13 -13 -13 -12 -12 -12 -12 -12 -12 -12 -11 -11 -12 -11 -11 -12 -12 -12 -11 -11 -12 -11 -11 -12 -13 -13 -13 -14 -12 -11 -12 -12 -11 -11 -11 -11 -12 -12 -12 -12
-14 -14 -14 -14 -14 -13 -13 -13 -13 -12 -11 -12 -12 -12 -12 -12 -11 -12 -12 -12 -12 -12 -12 -12 -12 -12 -12 -12 -12 -11 -12 -12 -13 -12 -12 -12 -12 -13 -11 -11 -12 -12 -12 -12 -12
-13 -14 -14 -14 -14 -14 -14 -13 -13 -12 -11 -12 -13 -12 -12 -12 -12 -12 -12 -12 -13 -13 -13 -12 -12 -12 -12 -12 -12 -13 -13 -13 -13 -14 -13 -12 -13 -13 -13 -12 -11 -12 -12 -12 -12
-14 -14 -14 -14 -14 -14 -14 -14 -14 -14 -12 -11 -13 -13 -13 -12 -11 -12 -13 -13 -13 -13 -13 -13 -13 -13 -12 -12 -13 -13 -13 -13 -13 -14 -13 -12 -13 -14 -15 -13 -12 -12 -12 -12 -13
-14 -15 -15 -14 -14 -14 -14 -14 -15 -14 -13 -11 -13 -12 -12 -13 -12 -13 -13 -13 -13 -13 -14 -13 -13 -13 -13 -13 -13 -13 -14 -14 -13 -13 -13 -14 -13 -15 -15 -14 -13 -13 -13 -13 -13
-15 -15 -15 -15 -15 -15 -15 -14 -14 -14 -14 -14 -13 -11 -13 -13 -13 -13 -14 -14 -13 -14 -14 -13 -14 -14 -13 -13 -14 -13 -14 -14 -14 -14 -14 -14 -14 -14 -16 -15 -14 -14 -13 -13 -15
-17 -17 -17 -16 -16 -15 -15 -15 -15 -15 -14 -15 -13 -12 -13 -13 -14 -13 -14 -14 -14 -14 -14 -14 -15 -13 -13 -13 -14 -14 -14 -14 -14 -15 -14 -14 -15 -14 -16 -17 -15 -13 -12 -14 -16
-18 -17 -17 -17 -17 -16 -16 -15 -15 -15 -14 -14 -14 -14 -14 -14 -14 -14 -14 -15 -14 -14 -14 -14 -14 -14 -13 -14 -14 -14 -14 -14 -15 -15 -14 -15 -16 -17 -16 -17 -17 -16 -16 -15 -15
-19 -19 -19 -18 -17 -17 -17 -18 -16 -14 -15 -16 -15 -14 -14 -15 -14 -14 -14 -15 -15 -14 -15 -15 -14 -14 -14 -13 -15 -15 -15 -15 -16 -16 -16 -17 -17 -17 -17 -16 -17 -18 -18 -17 -16
-20 -20 -20 -19 -19 -18 -18 -19 -16 -15 -16 -16 -17 -16 -15 -15 -15 -16 -15 -15 -15 -16 -16 -16 -16 -16 -15 -14 -14 -15 -15 -16 -16 -16 -16 -16 -17 -18 -17 -17 -18 -18 -19 -18 -18
-20 -21 -20 -21 -20 -19 -21 -19 -16 -16 -17 -18 -19 -16 -17 -17 -17 -16 -16 -16 -16 -16 -17 -17 -18 -18 -15 -16 -15 -16 -16 -16 -16 -16 -16 -16 -17 -18 -19 -18 -17 -18 -18 -19 -18
-22 -22 -21 -22 -22 -21 -22 -19 -17 -16 -19 -20 -18 -18 -18 -18 -18 -18 -18 -18 -18 -19 -18 -19 -19 -19 -17 -17 -17 -17 -17 -17 -17 -17 -17 -17 -17 -18 -19 -19 -19 -19 -20 -20 -19
-23 -23 -21 -22 -23 -22 -22 -19 -18 -19 -21 -20 -20 -20 -19 -19 -19 -20 -19 -19 -18 -19 -18 -20 -20 -20 -19 -19 -19 -19 -18 -18 -18 -18 -18 -18 -17 -19 -18 -19 -20 -20 -20 -21 -19
-25 -24 -23 -23 -24 -23 -22 -20 -21 -21 -21 -21 -21 -20 -20 -20 -21 -20 -20 -20 -20 -20 -19 -20 -20 -21 -20 -20 -20 -19 -19 -19 -19 -19 -18 -19 -18 -19 -20 -20 -20 -20 -20 -21 -20
-25 -26 -25 -24 -24 -24 -23 -21 -21 -21 -22 -22 -22 -21 -21 -21 -21 -20 -21 -20 -20 -21 -20 -21 -21 -21 -21 -21 -20 -20 -20 -20 -20 -20 -19 -19 -19 -19 -20 -21 -21 -21 -21 -22 -21
-26 -25 -26 -25 -24 -24 -23 -22 -22 -23 -23 -23 -23 -21 -21 -21 -21 -21 -22 -21 -21 -21 -21 -21 -21 -22 -21 -21 -20 -20 -20 -20 -21 -20 -21 -19 -21 -20 -21 -21 -21 -21 -21 -22 -22
-26 -26 -25 -26 -26 -26 -25 -24 -23 -22 -23 -22 -22 -22 -22 -22 -22 -22 -21 -22 -21 -21 -21 -21 -21 -21 -21 -22 -22 -21 -20 -21 -21 -21 -21 -22 -21 -21 -22 -22 -22 -22 -22 -22 -22
-26 -26 -26 -26 -26 -26 -25 -24 -24 -23 -23 -23 -23 -23 -23 -23 -23 -22 -22 -22 -21 -22 -22 -22 -22 -21 -21 -22 -22 -22 -20 -21 -21 -22 -22 -22 -21 -21 -22 -22 -22 -22 -22 -22 -22
Height
5816 5818 5819 5820 5822 5824 5824 5825 5826 5828 5829 5831 5832 5832 5834 5834 5835 5836 5838 5837 5839 5838 5838 5837 5838 5838 5838 5838 5838 5838 5839 5839 5840 5840 5831 5832 5832 5834 5833 5826 5829 5828 5823 5827 5829
5806 5808 5810 5811 5813 5814 5816 5816 5818 5819 5821 5823 5825 5825 5826 5827 5827 5826 5833 5830 5831 5831 5831 5831 5832 5832 5832 5832 5833 5833 5834 5831 5832 5827 5826 5828 5829 5825 5828 5820 5825 5824 5822 5822 5824
5796 5798 5799 5802 5803 5805 5806 5808 5810 5812 5813 5815 5817 5819 5818 5819 5821 5818 5824 5824 5824 5824 5825 5825 5825 5826 5826 5825 5825 5827 5827 5823 5824 5825 5823 5821 5824 5820 5822 5813 5821 5823 5819 5818 5818
5785 5788 5790 5793 5794 5796 5797 5799 5801 5804 5805 5806 5809 5811 5811 5811 5814 5813 5816 5817 5817 5818 5819 5820 5819 5820 5820 5819 5818 5819 5817 5818 5815 5821 5819 5816 5816 5815 5817 5814 5813 5817 5816 5814 5814
5775 5777 5779 5782 5784 5786 5788 5790 5792 5794 5796 5798 5800 5802 5803 5804 5805 5808 5807 5810 5810 5811 5813 5814 5812 5812 5811 5810 5809 5810 5807 5812 5809 5813 5812 5812 5811 5808 5814 5811 5811 5809 5811 5810 5810
5764 5766 5768 5772 5775 5777 5779 5781 5783 5786 5787 5789 5790 5793 5795 5798 5795 5800 5801 5802 5803 5803 5804 5805 5805 5803 5802 5801 5802 5801 5803 5805 5804 5806 5807 5807 5804 5807 5808 5806 5806 5805 5804 5805 5805
5753 5754 5759 5761 5763 5765 5770 5771 5772 5776 5779 5780 5781 5785 5787 5791 5789 5791 5794 5795 5796 5797 5797 5798 5797 5795 5795 5795 5795 5796 5798 5798 5799 5799 5800 5801 5799 5800 5804 5801 5800 5800 5799 5799 5799
5742 5745 5748 5750 5752 5756 5758 5760 5762 5765 5768 5771 5773 5775 5779 5780 5783 5783 5787 5788 5788 5789 5790 5790 5788 5788 5789 5788 5789 5789 5791 5793 5792 5793 5794 5796 5795 5790 5797 5795 5795 5794 5793 5792 5791
5729 5734 5735 5739 5741 5745 5747 5749 5751 5755 5758 5761 5765 5766 5770 5773 5773 5776 5779 5780 5780 5782 5782 5782 5781 5783 5783 5783 5783 5785 5787 5787 5784 5788 5786 5792 5788 5785 5789 5788 5788 5788 5787 5785 5783
5719 5721 5724 5727 5729 5733 5734 5739 5738 5743 5748 5752 5757 5759 5761 5765 5765 5768 5769 5771 5771 5774 5775 5775 5775 5776 5777 5777 5781 5780 5780 5783 5784 5781 5782 5783 5785 5778 5781 5781 5780 5779 5778 5777 5775
5705 5708 5712 5715 5718 5720 5723 5725 5728 5733 5736 5744 5747 5750 5748 5756 5758 5760 5760 5761 5764 5767 5768 5768 5769 5771 5771 5771 5774 5773 5776 5777 5778 5774 5771 5779 5778 5774 5769 5772 5772 5772 5769 5768 5767
5693 5696 5700 5703 5706 5709 5711 5713 5715 5718 5723 5731 5737 5737 5743 5741 5749 5747 5752 5754 5755 5760 5759 5761 5764 5764 5764 5767 5771 5770 5771 5772 5773 5772 5766 5764 5770 5766 5765 5759 5759 5763 5760 5759 5757
5679 5682 5685 5690 5695 5699 5701 5703 5705 5707 5709 5717 5727 5729 5734 5731 5733 5739 5741 5745 5748 5749 5751 5754 5757 5756 5759 5762 5763 5765 5765 5767 5765 5764 5759 5761 5759 5759 5757 5751 5750 5750 5748 5747 5747
5664 5668 5671 5677 5685 5685 5691 5693 5695 5696 5697 5705 5716 5718 5718 5722 5723 5730 5732 5737 5737 5741 5745 5745 5748 5749 5751 5754 5757 5756 5756 5753 5754 5757 5755 5753 5750 5751 5746 5745 5742 5740 5737 5735 5737
5644 5651 5656 5665 5668 5676 5679 5683 5681 5685 5687 5691 5692 5705 5708 5712 5716 5720 5724 5723 5730 5734 5734 5739 5739 5741 5740 5745 5749 5746 5745 5746 5746 5744 5745 5743 5741 5743 5741 5735 5734 5729 5728 5729 5727
5629 5634 5636 5645 5654 5658 5665 5669 5666 5672 5676 5681 5681 5689 5695 5701 5705 5705 5714 5717 5721 5720 5720 5725 5728 5728 5735 5734 5735 5738 5736 5737 5734 5734 5731 5735 5735 5737 5732 5727 5717 5714 5717 5716 5712
5612 5618 5622 5627 5639 5640 5646 5648 5650 5658 5672 5672 5676 5677 5677 5685 5692 5697 5700 5705 5707 5709 5712 5718 5718 5718 5718 5724 5725 5726 5727 5725 5723 5723 5725 5729 5726 5726 5720 5718 5710 5705 5706 5704 5704
5594 5601 5606 5617 5620 5626 5626 5625 5628 5659 5662 5659 5663 5668 5671 5672 5679 5683 5689 5691 5694 5697 5701 5702 5703 5706 5710 5711 5713 5713 5714 5714 5712 5715 5717 5718 5716 5711 5709 5707 5703 5700 5693 5693 5694
5575 5585 5593 5602 5603 5607 5606 5605 5622 5647 5650 5647 5646 5652 5660 5661 5665 5668 5675 5679 5680 5682 5686 5689 5691 5694 5694 5697 5703 5702 5701 5706 5702 5705 5705 5709 5712 5702 5701 5701 5694 5689 5685 5684 5680
5558 5565 5580 5582 5585 5590 5586 5591 5617 5631 5635 5628 5629 5642 5648 5652 5651 5654 5659 5667 5670 5672 5673 5678 5677 5678 5682 5687 5688 5689 5692 5691 5692 5694 5695 5700 5700 5697 5689 5687 5683 5679 5678 5673 5669
5538 5542 5569 5565 5567 5567 5571 5582 5613 5618 5614 5616 5620 5628 5632 5638 5640 5644 5649 5654 5658 5661 5663 5668 5665 5670 5672 5675 5681 5683 5682 5683 5683 5685 5685 5688 5689 5685 5681 5676 5674 5672 5665 5658 5657
5518 5523 5549 5547 5545 5548 5557 5584 5603 5601 5602 5603 5610 5617 5621 5626 5629 5631 5636 5642 5645 5648 5652 5656 5656 5656 5662 5668 5668 5666 5671 5671 5670 5676 5674 5674 5676 5673 5671 5670 5666 5665 5659 5650 5648
5502 5514 5525 5526 5523 5535 5554 5571 5579 5586 5589 5592 5597 5605 5610 5615 5618 5623 5628 5628 5629 5637 5639 5640 5643 5647 5649 5653 5654 5658 5661 5660 5660 5660 5662 5661 5664 5665 5663 5655 5655 5653 5645 5634 5637
5497 5498 5504 5506 5520 5527 5543 5558 5565 5575 5577 5583 5587 5592 5598 5602 5608 5613 5618 5618 5621 5624 5630 5631 5634 5638 5639 5643 5642 5646 5650 5651 5650 5646 5648 5648 5648 5657 5654 5647 5646 5644 5639 5629 5628
5481 5486 5491 5496 5508 5517 5529 5545 5548 5556 5564 5572 5577 5586 5591 5594 5599 5602 5603 5604 5612 5615 5619 5619 5623 5625 5629 5627 5633 5635 5638 5639 5638 5638 5636 5642 5639 5644 5641 5638 5634 5633 5632 5627 5617
5466 5476 5484 5491 5503 5506 5515 5527 5538 5549 5554 5561 5568 5575 5579 5584 5588 5591 5595 5596 5600 5604 5606 5608 5610 5614 5618 5621 5619 5621 5629 5629 5629 5629 5629 5629 5631 5637 5628 5629 5624 5624 5622 5619 5609
5452 5467 5476 5483 5490 5495 5504 5518 5528 5539 5543 5552 5559 5564 5567 5575 5575 5580 5587 5588 5591 5593 5596 5600 5601 5605 5606 5611 5610 5609 5619 5619 5620 5621 5620 5618 5624 5624 5618 5617 5616 5614 5610 5609 5602
Wind_Speed
55 54 53 51 50 49 46 45 44 42 41 41 40 38 38 37 37 38 35 36 32 32 32 30 30 30 26 25 25 23 21 19 11 18 35 32 26 22 21 29 23 22 30 23 19
56 55 55 54 53 52 50 48 47 45 44 43 43 40 40 39 39 42 34 35 34 33 31 29 29 26 23 23 25 24 21 21 24 34 33 25 22 28 22 31 21 23 24 23 19
57 57 56 57 55 54 53 50 48 48 46 44 44 44 42 42 39 42 34 36 33 31 30 27 23 23 23 23 25 26 25 32 32 31 30 29 25 30 23 35 19 11 19 22 22
57 57 56 56 55 54 52 50 49 48 46 45 45 44 42 42 39 42 32 31 30 30 27 28 26 29 30 33 36 31 34 33 36 28 30 31 30 30 24 27 25 17 18 20 20
55 54 52 52 52 51 50 48 47 46 45 43 43 42 41 40 37 36 32 27 28 28 28 30 33 33 33 35 35 33 38 32 35 29 31 30 29 33 21 25 25 25 20 21 22
58 54 53 52 50 48 48 45 43 44 43 41 41 42 40 37 37 33 33 28 29 31 33 38 37 29 30 31 30 35 34 32 33 29 28 28 30 25 24 27 27 27 26 26 27
54 50 56 55 60 57 58 57 53 54 48 47 42 44 41 34 39 36 32 32 32 35 36 37 32 28 26 29 28 30 32 33 29 28 28 25 28 27 22 28 29 30 31 32 33
56 55 54 54 51 52 53 51 50 51 48 47 43 44 41 39 37 37 33 33 35 37 39 31 28 26 25 26 26 27 28 27 27 26 27 24 26 31 22 27 28 31 32 34 36
55 59 57 57 57 58 56 53 51 51 49 45 42 42 38 38 40 37 37 37 37 38 36 30 26 25 25 26 26 24 23 25 29 25 30 24 29 34 27 27 29 31 32 33 35
67 66 62 62 60 60 57 58 55 55 51 47 42 44 39 40 41 39 41 41 40 35 33 27 25 26 26 27 20 22 25 23 20 28 28 26 28 38 35 33 33 33 33 36 38
65 66 61 61 60 59 57 59 58 59 55 50 47 46 46 42 44 42 44 40 40 33 28 26 26 25 27 27 28 29 24 23 24 32 40 32 33 39 43 37 36 36 39 40 42
71 65 63 63 58 53 57 55 57 56 57 52 48 48 42 46 44 44 43 41 38 32 31 28 25 26 31 28 23 26 27 29 31 33 44 45 35 40 41 46 44 38 41 43 45
60 64 63 62 54 52 55 54 58 59 60 54 45 46 38 46 45 41 40 39 37 33 32 30 29 34 33 30 30 32 35 35 41 40 46 43 42 40 39 47 48 46 47 47 47
74 65 62 61 61 61 64 60 58 61 63 61 51 45 47 45 46 40 43 39 39 34 32 35 33 37 39 38 37 41 41 46 47 45 47 45 48 35 39 43 50 52 54 54 49
80 80 78 68 63 62 61 63 64 61 60 59 59 53 50 50 47 45 42 47 40 35 39 39 40 41 44 42 39 47 48 49 49 49 48 48 48 44 33 47 52 56 56 53 47
79 72 70 70 66 70 65 64 66 64 63 55 60 55 51 51 51 53 49 45 45 45 45 43 44 48 44 47 46 46 49 50 52 50 53 47 45 47 36 36 54 60 58 55 56
80 86 79 76 68 74 73 75 73 68 64 62 54 57 59 57 52 51 51 49 52 51 47 43 44 47 49 48 48 49 49 51 51 50 52 44 42 33 39 39 47 54 53 61 61
77 76 74 75 76 78 78 76 74 67 68 66 71 70 66 62 60 56 54 52 48 49 47 48 50 48 49 51 49 49 50 51 49 45 43 30 34 37 40 47 48 48 57 63 60
77 77 76 73 76 78 79 78 81 68 65 60 57 55 61 68 67 55 52 50 49 41 46 44 47 45 52 54 50 49 53 47 49 49 49 47 39 40 52 56 58 53 51 57 58
77 77 72 74 75 76 65 76 76 72 65 56 51 57 55 55 56 57 51 49 44 43 41 43 44 48 52 48 48 44 46 48 46 47 47 48 49 36 40 50 59 57 56 57 61
78 78 71 71 72 76 64 73 70 69 59 51 53 49 45 47 48 47 44 44 43 40 40 38 42 44 48 49 41 41 45 47 50 52 51 52 53 48 49 56 56 54 51 53 57
76 78 73 72 72 76 78 69 61 60 53 52 47 41 42 42 40 36 38 38 46 48 47 43 45 47 49 44 46 49 51 48 52 53 53 57 60 56 55 51 47 47 48 51 56
59 71 73 71 74 74 74 69 65 61 51 50 52 46 44 38 41 38 34 32 36 40 45 46 48 46 47 50 53 52 52 54 54 56 57 57 55 49 44 47 47 49 50 51 52
51 52 55 63 59 63 67 67 65 57 51 51 47 46 41 39 40 43 44 45 43 44 45 45 47 49 49 48 53 51 48 48 49 51 52 53 52 42 40 39 41 43 45 47 47
58 57 55 57 58 59 60 60 61 57 55 52 53 51 51 48 41 41 46 50 49 47 50 50 50 47 48 53 51 47 45 43 40 43 45 46 37 40 37 41 42 43 41 41 47
58 57 60 50 47 48 48 57 60 55 52 54 52 47 47 47 45 47 45 39 38 38 38 43 47 49 50 50 49 46 41 48 50 41 32 37 43 33 37 38 43 42 36 35 44
65 56 51 58 46 43 47 50 48 50 52 46 45 46 46 41 44 40 39 39 34 35 35 39 38 38 41 38 40 47 38 40 42 45 42 42 39 35 37 38 38 33 38 38 42
Wind_Direction
259 260 260 260 262 263 262 263 265 265 266 269 270 271 275 276 278 280 281 282 281 281 282 283 281 282 283 281 280 274 264 258 252 263 246 280 263 261 268 268 270 259 271 281 266
258 259 261 261 262 262 263 263 265 266 267 269 272 272 274 276 276 277 280 280 282 282 280 280 280 279 277 281 280 275 262 238 228 228 272 275 262 267 264 268 259 264 275 279 270
261 260 259 261 261 262 263 264 265 266 267 269 270 271 273 275 276 275 280 280 280 277 278 273 272 274 279 280 277 277 258 259 266 265 268 268 256 264 255 265 288 253 260 269 271
259 260 261 262 262 264 264 265 266 267 266 267 269 270 272 273 274 277 278 277 273 273 272 271 276 281 283 283 280 270 260 266 266 255 250 257 261 260 255 274 276 272 264 270 269
257 259 260 262 262 263 264 264 265 266 266 266 268 269 270 271 272 280 269 267 269 268 266 273 278 280 281 278 279 263 261 260 259 251 253 255 256 260 260 268 273 274 270 264 264
256 257 259 260 261 263 262 262 265 268 267 268 266 267 264 266 273 272 267 260 261 264 270 280 288 278 272 275 268 268 268 260 256 252 248 253 257 264 268 271 271 274 273 269 270
260 262 258 263 253 259 264 264 266 263 265 266 268 265 263 261 270 268 264 260 266 274 280 284 280 275 275 271 269 265 261 259 255 248 246 251 260 263 270 270 273 273 273 275 275
258 260 260 260 261 262 261 262 262 261 261 265 262 262 263 264 266 263 262 266 275 277 281 279 276 272 271 272 261 257 257 253 248 241 247 247 263 275 266 268 271 273 276 277 278
257 258 259 260 260 261 262 262 262 261 261 261 260 261 261 260 261 261 261 269 276 280 275 274 272 268 264 263 252 249 244 241 252 244 252 251 267 274 279 275 267 270 276 278 279
252 255 259 261 260 260 261 262 260 261 261 261 259 261 257 259 261 258 262 270 276 276 270 272 263 256 257 253 238 231 234 238 241 260 250 263 268 276 273 270 272 274 275 277 279
254 256 257 259 262 262 261 261 262 260 261 259 259 259 263 258 264 258 263 268 272 265 266 260 255 255 251 243 226 238 244 240 239 262 275 265 274 271 275 270 270 273 275 276 279
245 247 246 256 258 259 260 262 261 263 262 259 257 258 258 263 260 259 263 264 261 259 253 252 250 247 246 253 249 240 241 248 252 257 269 273 272 268 271 274 276 271 271 275 279
242 241 246 247 245 249 255 255 258 265 264 258 257 256 254 253 256 258 259 258 254 252 247 248 244 247 252 253 253 254 258 262 263 264 268 271 272 272 268 269 274 278 278 278 283
245 242 239 241 247 246 254 255 260 262 260 261 256 257 254 248 256 256 258 252 250 248 246 246 241 252 255 257 262 260 264 264 265 271 271 272 271 261 270 278 279 281 282 285 290
245 244 244 246 251 249 252 253 251 252 251 256 253 252 250 250 262 258 248 249 248 256 249 251 252 251 258 263 260 263 264 268 272 272 267 265 265 275 275 277 277 277 280 287 291
252 253 253 250 249 243 246 244 240 240 241 242 248 251 247 251 258 258 249 247 250 249 249 248 251 257 258 262 267 267 269 269 268 267 265 265 271 271 270 269 274 283 291 293 292
253 255 256 254 252 253 248 240 243 238 248 248 247 252 257 258 259 255 253 250 249 253 251 256 256 261 263 264 264 265 264 266 265 261 267 274 275 267 261 260 265 282 287 289 294
245 246 249 255 251 251 255 261 254 241 243 249 252 253 255 259 259 256 253 248 244 245 251 252 255 257 264 267 265 262 260 259 260 262 267 261 260 266 266 276 277 278 284 289 295
245 244 244 245 246 247 252 255 256 250 257 260 257 255 253 256 257 256 255 252 244 241 247 251 252 253 255 259 260 261 260 260 258 258 260 264 258 263 275 280 278 278 279 289 290
244 243 242 244 246 246 249 251 253 256 259 261 256 257 256 256 258 260 259 259 257 252 240 244 245 244 253 254 254 251 256 260 259 260 263 265 268 263 267 269 275 277 283 283 287
243 242 240 242 243 246 242 251 246 253 253 251 256 258 258 255 258 258 258 255 250 238 238 240 239 242 250 253 255 258 256 260 263 263 266 268 268 264 266 274 281 284 287 288 290
244 242 237 240 241 242 245 246 250 252 253 255 254 252 252 253 251 257 257 256 252 237 237 239 244 247 250 255 254 255 254 258 261 264 268 269 270 272 276 278 274 277 281 282 287
245 246 239 238 239 240 243 241 249 248 246 250 251 248 248 245 241 238 239 229 247 243 240 235 239 242 247 248 249 253 259 262 264 263 266 267 271 276 277 275 279 282 289 290 298
226 237 242 239 238 241 242 240 245 247 243 246 244 242 238 242 244 243 234 227 229 238 246 242 244 248 252 257 258 259 261 264 265 267 269 269 272 273 272 274 279 279 283 296 295
218 224 229 234 235 236 237 237 238 239 242 242 241 249 250 255 246 248 245 248 248 247 250 252 252 251 252 254 260 264 261 262 256 261 263 269 268 272 275 281 279 280 288 292 292
222 223 227 233 240 234 235 238 238 238 240 244 248 246 247 245 247 255 255 254 256 256 260 265 262 262 263 263 269 266 260 255 258 256 257 267 269 283 277 273 278 285 287 286 290
218 223 226 232 233 234 235 231 231 233 235 235 238 238 240 241 236 241 241 238 253 251 260 266 268 266 263 256 256 256 261 259 258 253 266 274 281 275 276 279 284 289 289 293 296